This is the latest recevied weather packets stored in our database for station/object JA0ZJX-13. If no packets are shown the sender has not sent any weather packets the latest 10 day(s).
| Time | Temp. | Humidity | Pressure | Rain* | Wind** | Luminosity | Snow |
|---|---|---|---|---|---|---|---|
| 1777752813 | 11.11° C | 79% | 1013.8 hPa | 0 mm | - | 12 W/m² | - |
| 1777752223 | 11.11° C | 79% | 1013.7 hPa | 0 mm | - | 9 W/m² | - |
| 1777751611 | 11.11° C | 78% | 1013.6 hPa | 0 mm | - | 0 W/m² | - |
| 1777751024 | 11.11° C | 78% | 1013.7 hPa | 0 mm | - | 0 W/m² | - |
| 1777750411 | 11.67° C | 77% | 1013.4 hPa | 0 mm | - | 0 W/m² | - |
| 1777749820 | 11.67° C | 76% | 1013.4 hPa | 0 mm | - | 0 W/m² | - |
| 1777749207 | 12.22° C | 76% | 1013.3 hPa | 0 mm | - | 0 W/m² | - |
| 1777748620 | 11.67° C | 77% | 1013.3 hPa | 0 mm | - | 0 W/m² | - |
| 1777748008 | 11.67° C | 77% | 1013.5 hPa | 0 mm | - | 0 W/m² | - |
| 1777747415 | 11.67° C | 76% | 1013.4 hPa | 0 mm | - | 0 W/m² | - |
| 1777746807 | 11.67° C | 77% | 1013.4 hPa | 0 mm | - | 0 W/m² | - |
| 1777746215 | 11.67° C | 77% | 1013.4 hPa | 0 mm | - | 0 W/m² | - |
| 1777745624 | 11.67° C | 77% | 1013.4 hPa | 0 mm | - | 0 W/m² | - |
| 1777745013 | 11.11° C | 77% | 1013.6 hPa | 0 mm | - | 0 W/m² | - |
| 1777744407 | 11.11° C | 77% | 1013.6 hPa | 0 mm | - | 0 W/m² | - |
| 1777743816 | 11.67° C | 76% | 1013.6 hPa | 0 mm | - | 0 W/m² | - |
| 1777743205 | 11.67° C | 75% | 1013.5 hPa | 0 mm | - | 0 W/m² | - |
| 1777742616 | 12.22° C | 74% | 1013.6 hPa | 0 mm | - | 0 W/m² | - |
| 1777742009 | 12.78° C | 73% | 1013.6 hPa | 0 mm | - | 0 W/m² | - |
| 1777741419 | 12.78° C | 71% | 1013.3 hPa | 0 mm | - | 0 W/m² | - |
| 1777740808 | 12.78° C | 70% | 1013.5 hPa | 0 mm | - | 0 W/m² | - |
| 1777740218 | 13.33° C | 69% | 1013.4 hPa | 0 mm | - | 0 W/m² | - |
| 1777739612 | 12.78° C | 70% | 1013 hPa | 0 mm | - | 0 W/m² | - |
| 1777739022 | 12.78° C | 71% | 1013 hPa | 0 mm | - | 0 W/m² | - |
| 1777738411 | 12.22° C | 71% | 1013.3 hPa | 0 mm | - | 0 W/m² | - |
* Rain latest hour (hover to see other rain measurements)
** Current wind speed in m/s (hover to see current wind gust speed)